Niagara Falls, NY

10:47 AM EST on November 12, 2019 (GMT -0500)
Niagara Falls International

Weather History for KIAG - September, 2019

Change the Weather History Date:

Saturday, September 28, 2019

  Actual Average Record
Temperature  
Mean Temperature 65 °F -  
Max Temperature 73 °F 64 °F 82 °F (1999)
Min Temperature 55 °F 45 °F 32 °F (1989)
Growing Degree Days 15 (Base 50)    
Moisture  
Dew Point 61 °F    
Average Humidity 87    
Maximum Humidity 97    
Minimum Humidity 57    
Precipitation  
Precipitation 0.24 in - - ()
Sea Level Pressure  
Sea Level Pressure 30.03 in    
Wind  
Wind Speed 9 mph (WNW)    
Max Wind Speed 15 mph    
Max Gust Speed -    
Visibility 8 miles    
Events Rain    
Averages and records for this station are not official NWS values.
T = Trace of Precipitation, MM = Missing Value Source: NWS Daily Summary

Daily Weather History Graph

Daily Weather History Graph

Search for Another Location

Airport or City:

Astronomy

Sep. 28, 2019 Rise Set
Actual Time 7:09 AM EDT 7:02 PM EDT
Civil Twilight 6:41 AM EDT 7:31 PM EDT
Nautical Twilight 6:08 AM EDT 8:04 PM EDT
Astronomical Twilight 5:34 AM EDT 8:37 PM EDT
Moon 6:41 AM EDT (9/28) 7:28 PM EDT (9/28)
Length of Visible Light 12h 49m
Length of Day
11h 53m
Waning Crescent, 0% of the Moon is Illuminated
Sep 28
Waning Crescent
Sep 28
New
Oct 5
First Quarter
Oct 13
Full
Oct 21
Last Quarter

Hourly Weather History & Observations

Time (EDT) Temp. Dew Point Humidity Pressure Visibility Wind Dir Wind Speed Gust Speed Precip Events Conditions
12:53 AM 69.1 °F 53.1 °F 57% 29.85 in 10.0 mi SSW 10.4 mph - N/A   Clear
1:53 AM 68.0 °F 54.0 °F 61% 29.86 in 10.0 mi SSW 6.9 mph - N/A   Partly Cloudy
2:53 AM 66.9 °F 55.9 °F 68% 29.87 in 10.0 mi SSW 8.1 mph - N/A   Clear
3:53 AM 70.0 °F 55.9 °F 61% 29.88 in 10.0 mi SW 10.4 mph - N/A   Overcast
4:53 AM 68.0 °F 57.0 °F 68% 29.89 in 10.0 mi SW 9.2 mph - N/A   Mostly Cloudy
5:53 AM 64.0 °F 60.1 °F 87% 29.93 in 5.0 mi SW 10.4 mph - 0.04 in Rain Rain
6:53 AM 63.0 °F 61.0 °F 93% 29.90 in 9.0 mi South 9.2 mph - 0.06 in Rain Light Rain
7:53 AM 64.0 °F 62.1 °F 93% 29.92 in 10.0 mi SSW 8.1 mph - 0.00 in   Clear
8:53 AM 64.9 °F 63.0 °F 93% 29.95 in 10.0 mi SW 8.1 mph - N/A   Overcast
9:53 AM 68.0 °F 64.9 °F 90% 29.96 in 10.0 mi SW 5.8 mph - N/A   Overcast
10:53 AM 68.0 °F 64.0 °F 87% 29.99 in 10.0 mi WSW 10.4 mph - 0.00 in   Scattered Clouds
11:53 AM 69.1 °F 64.0 °F 84% 29.99 in 10.0 mi SW 11.5 mph - N/A   Overcast
12:53 PM 71.1 °F 66.0 °F 84% 30.00 in 10.0 mi SSW 12.7 mph - N/A   Overcast
1:53 PM 73.0 °F 64.0 °F 73% 30.00 in 10.0 mi SW 15.0 mph - N/A   Overcast
2:53 PM 70.0 °F 64.9 °F 84% 30.01 in 10.0 mi WSW 12.7 mph - 0.00 in Rain Light Rain
3:37 PM 68.0 °F 66.0 °F 93% 30.03 in 10.0 mi NNW 9.2 mph - 0.01 in Rain Light Rain
3:53 PM 68.0 °F 66.0 °F 93% 30.04 in 1.8 mi NW 12.7 mph - 0.02 in Rain Light Rain
4:17 PM 64.9 °F 63.0 °F 93% 30.05 in 4.0 mi NNW 10.4 mph - 0.00 in   Overcast
4:44 PM 64.0 °F 62.1 °F 93% 30.06 in 10.0 mi NNW 9.2 mph - 0.02 in Rain Light Rain
4:53 PM 64.0 °F 62.1 °F 93% 30.06 in 4.0 mi NNW 9.2 mph - 0.03 in Rain Light Rain
4:57 PM 63.0 °F 62.1 °F 97% 30.07 in 2.5 mi NNW 8.1 mph - 0.02 in Rain Rain
5:01 PM 63.0 °F 62.1 °F 97% 30.07 in 1.2 mi NNW 6.9 mph - 0.06 in Rain Heavy Rain
5:08 PM 63.0 °F 62.1 °F 97% 30.08 in 2.0 mi NNW 11.5 mph - 0.07 in Rain Light Rain
5:12 PM 63.0 °F 61.0 °F 93% 30.08 in 7.0 mi NNW 12.7 mph - 0.07 in Rain Light Rain
5:21 PM 63.0 °F 61.0 °F 93% 30.08 in 3.0 mi NNW 11.5 mph - 0.08 in Rain Light Rain
5:42 PM 63.0 °F 61.0 °F 93% 30.10 in 3.0 mi North 11.5 mph - 0.09 in Rain Light Rain
5:53 PM 63.0 °F 61.0 °F 93% 30.10 in 3.0 mi North 9.2 mph - 0.09 in   Overcast
6:53 PM 62.1 °F 61.0 °F 96% 30.12 in 10.0 mi North 3.5 mph - 0.00 in   Overcast
7:53 PM 62.1 °F 59.0 °F 90% 30.14 in 10.0 mi NNW 6.9 mph - N/A   Overcast
8:53 PM 60.1 °F 57.0 °F 90% 30.18 in 10.0 mi NNW 4.6 mph - N/A   Partly Cloudy
9:53 PM 59.0 °F 55.9 °F 90% 30.20 in 10.0 mi North 5.8 mph - N/A   Partly Cloudy
10:53 PM 57.9 °F 55.0 °F 90% 30.23 in 10.0 mi North 4.6 mph - N/A   Scattered Clouds
11:53 PM 55.9 °F 53.1 °F 90% 30.25 in 10.0 mi North 5.8 mph - N/A   Clear